Location: ?
(35.4554°N, 139.3092°E)
Time: 22:49:34
(UTC+00:00)

IDEFIX/ARIANE 42P - Pass Details

Date: 21 April 2021
Orbit: 785 x 802 km, 98.4° (Epoch: 10 May)

Event Time Altitude Azimuth Distance (km) Brightness Sun altitude
Rises 18:40:04 0° 354° (N) 3,294 6.1 -16.3°
Reaches altitude 10° 18:43:04 10° 336° (NNW) 2,364 5.1 -15.7°
Maximum altitude 18:46:30 18° 295° (WNW) 1,861 4.1 -15.1°
Enters shadow 18:47:45 17° 277° (W) 1,936 4.1 -14.9°
